Location: *
(57.8420°S, 159.8600°W)
Time: 13:11:55
(UTC+00:00)

Cosmos 2237 Rocket - Pass Details

Date: 18 May 2021
Orbit: 836 x 848 km, 71.0° (Epoch: 22 June)

Event Time Altitude Azimuth Distance (km) Brightness Sun altitude
Rises 07:42:16 0° 268° (W) 3,434 6.0 -40.4°
Reaches altitude 10° 07:45:08 10° 255° (WSW) 2,504 5.3 -40.8°
Enters shadow 07:48:07 22° 227° (SW) 1,786 4.3 -41.1°
